Weather History for Kimball, NE

Change the Weather History Date:

Saturday, May 5, 2012

  Actual Average (KSNY) Record (KSNY)
Temperature  
Mean Temperature 62 °F 54 °F  
Max Temperature 73 °F 69 °F 92 °F (2004)
Min Temperature 51 °F 40 °F 22 °F (2013)
Degree Days  
Heating Degree Days 3 11  
Month to date heating degree days 58  
Since 1 July heating degree days 5970  
Cooling Degree Days 0 0  
Month to date cooling degree days 0  
Year to date cooling degree days 1  
Growing Degree Days 12 (Base 50)    
Moisture  
Dew Point 53 °F    
Average Humidity 77    
Maximum Humidity 97    
Minimum Humidity 41    
Precipitation  
Precipitation 0.31 in 0.11 in 1.30 in (1968)
Month to date precipitation 0.52  
Year to date precipitation 4.19  
Sea Level Pressure  
Sea Level Pressure 29.89 in    
Wind  
Wind Speed 11 mph (NE)    
Max Wind Speed 26 mph    
Max Gust Speed 38 mph    
Visibility 7 miles    
Events Fog , Rain , Thunderstorm    
T = Trace of Precipitation, MM = Missing Value Source: NWS Daily Summary

Daily Weather History Graph

Daily Weather History Graph

Search for Another Location

Airport:

Trip Planner

Search our weather history database for the weather conditions in past years. The results will help you decide how hot, cold, wet, or windy it might be!

Date:

Astronomy

May. 05, 2012 Rise Set
Actual Time 6:46 AM CDT 8:56 PM CDT
Civil Twilight 6:16 AM CDT 9:27 PM CDT
Nautical Twilight 5:38 AM CDT 10:04 PM CDT
Astronomical Twilight 4:58 AM CDT 10:45 PM CDT
Moon 8:52 PM CDT (5/5) 6:11 AM CDT (5/5)
Length of Visible Light 15h 10m
Length of Day
14h 09m
Full, 100% of the Moon is Illuminated
May 5
Full
May 5
Full
May 12
Last Quarter
May 20
New
May 28
First Quarter

Hourly Weather History & Observations

Time (CDT) Temp. Dew Point Humidity Pressure Visibility Wind Dir Wind Speed Gust Speed Precip Events Conditions
12:15 AM 54.5 °F 41.9 °F 62% 29.86 in 10.0 mi NE 6.9 mph - N/A   Clear
12:35 AM 55.2 °F 42.8 °F 63% 29.87 in 10.0 mi NE 11.5 mph - N/A   Clear
12:55 AM 57.0 °F 48.7 °F 74% 29.87 in 10.0 mi ENE 13.8 mph - N/A   Clear
1:15 AM 59.0 °F 56.1 °F 90% 29.86 in 10.0 mi East 16.1 mph 21.9 mph N/A   Mostly Cloudy
1:35 AM 59.9 °F 57.4 °F 91% 29.86 in 7.0 mi East 17.3 mph 25.3 mph N/A   Overcast
1:55 AM 60.3 °F 57.6 °F 91% 29.86 in 7.0 mi East 17.3 mph 25.3 mph N/A   Overcast
2:15 AM 60.8 °F 57.9 °F 90% 29.86 in 7.0 mi East 17.3 mph 21.9 mph N/A   Overcast
2:35 AM 59.9 °F 57.2 °F 91% 29.85 in 7.0 mi East 15.0 mph 20.7 mph N/A   Mostly Cloudy
2:55 AM 60.3 °F 57.6 °F 91% 29.86 in 5.0 mi East 9.2 mph - N/A   Overcast
3:15 AM 59.9 °F 57.2 °F 91% 29.88 in 5.0 mi East 10.4 mph - N/A   Overcast
3:35 AM 59.0 °F 56.7 °F 92% 29.88 in 5.0 mi East 9.2 mph - N/A   Mostly Cloudy
3:55 AM 59.0 °F 56.5 °F 91% 29.87 in 5.0 mi East 8.1 mph - N/A   Overcast
4:15 AM 58.5 °F 56.3 °F 93% 29.87 in 5.0 mi ENE 4.6 mph - N/A   Overcast
4:35 AM 56.8 °F 55.2 °F 94% 29.87 in 4.0 mi NE 5.8 mph - N/A   Mostly Cloudy
4:55 AM 55.6 °F 54.3 °F 96% 29.86 in 2.5 mi ENE 5.8 mph - N/A   Mostly Cloudy
5:15 AM 53.8 °F 52.7 °F 96% 29.86 in 2.0 mi ENE 5.8 mph - N/A   Mostly Cloudy
5:35 AM 52.9 °F 51.8 °F 96% 29.85 in 0.2 mi NE 3.5 mph - N/A Fog Fog
5:55 AM 51.3 °F 50.4 °F 97% 29.86 in 0.2 mi NE 5.8 mph - N/A Fog Fog
6:15 AM 56.3 °F 55.4 °F 97% 29.86 in 0.8 mi NE 4.6 mph - N/A   Overcast
6:35 AM 56.3 °F 55.4 °F 97% 29.87 in 1.5 mi ENE 4.6 mph - N/A   Overcast
6:55 AM 56.3 °F 55.4 °F 97% 29.87 in 0.5 mi NE 6.9 mph - N/A Fog Fog
7:15 AM 55.9 °F 55.0 °F 97% 29.88 in 0.2 mi NE 6.9 mph - N/A Fog Fog
7:35 AM 55.9 °F 55.2 °F 97% 29.89 in 0.2 mi NE 6.9 mph - N/A Fog Fog
7:55 AM 56.3 °F 55.4 °F 97% 29.89 in 1.0 mi NE 4.6 mph - N/A   Overcast
8:15 AM 56.5 °F 55.6 °F 97% 29.89 in 2.0 mi NNE 3.5 mph - N/A   Overcast
8:35 AM 57.2 °F 56.1 °F 96% 29.89 in 3.0 mi North 3.5 mph - N/A   Overcast
8:55 AM 58.8 °F 54.7 °F 86% 29.89 in 7.0 mi NNW 5.8 mph - N/A   Overcast
9:15 AM 60.8 °F 55.2 °F 82% 29.88 in 7.0 mi North 8.1 mph - N/A   Overcast
9:35 AM 60.8 °F 54.5 °F 80% 29.89 in 7.0 mi North 4.6 mph - N/A   Scattered Clouds
9:55 AM 62.8 °F 55.0 °F 76% 29.89 in 10.0 mi NNW 5.8 mph - N/A   Clear
10:15 AM 64.2 °F 55.0 °F 72% 29.89 in 10.0 mi NNW 6.9 mph - N/A   Clear
10:35 AM 65.1 °F 54.9 °F 69% 29.89 in 10.0 mi North 11.5 mph - N/A   Scattered Clouds
10:55 AM 66.9 °F 55.0 °F 66% 29.90 in 10.0 mi North 9.2 mph - N/A   Clear
11:15 AM 67.3 °F 54.3 °F 63% 29.90 in 10.0 mi NNE 13.8 mph 19.6 mph N/A   Scattered Clouds
11:35 AM 67.3 °F 54.3 °F 63% 29.90 in 10.0 mi NE 12.7 mph 18.4 mph N/A   Scattered Clouds
11:55 AM 69.1 °F 54.7 °F 60% 29.89 in 10.0 mi NNE 12.7 mph 19.6 mph N/A   Scattered Clouds
12:15 PM 67.6 °F 53.4 °F 60% 29.89 in 10.0 mi NNE 15.0 mph - N/A   Clear
12:35 PM 68.5 °F 53.1 °F 58% 29.89 in 10.0 mi North 12.7 mph 21.9 mph N/A   Clear
12:55 PM 69.1 °F 52.9 °F 56% 29.88 in 10.0 mi NNE 13.8 mph 19.6 mph N/A   Clear
1:15 PM 69.4 °F 51.8 °F 53% 29.88 in 10.0 mi NNE 15.0 mph 18.4 mph N/A   Clear
1:35 PM 69.8 °F 53.4 °F 56% 29.88 in 10.0 mi ENE 12.7 mph 20.7 mph N/A   Clear
1:55 PM 69.3 °F 52.3 °F 55% 29.88 in 10.0 mi ENE 8.1 mph - N/A   Clear
2:15 PM 70.3 °F 52.0 °F 52% 29.88 in 10.0 mi NE 8.1 mph 16.1 mph N/A   Clear
2:35 PM 70.7 °F 51.8 °F 51% 29.88 in 10.0 mi NE 12.7 mph 17.3 mph N/A   Clear
2:55 PM 70.5 °F 51.4 °F 51% 29.87 in 10.0 mi NE 12.7 mph - N/A   Clear
3:15 PM 71.6 °F 50.0 °F 46% 29.87 in 10.0 mi ENE 13.8 mph 17.3 mph N/A   Clear
3:35 PM 72.0 °F 49.6 °F 45% 29.86 in 10.0 mi ENE 13.8 mph 20.7 mph N/A   Clear
3:55 PM 73.2 °F 49.6 °F 43% 29.86 in 10.0 mi East 13.8 mph 19.6 mph N/A   Clear
4:15 PM 72.5 °F 49.3 °F 44% 29.85 in 10.0 mi East 15.0 mph 20.7 mph N/A   Clear
4:35 PM 73.8 °F 48.9 °F 41% 29.85 in 10.0 mi East 13.8 mph 18.4 mph N/A   Clear
4:55 PM 73.6 °F 49.5 °F 43% 29.84 in 10.0 mi East 17.3 mph 21.9 mph N/A   Clear
5:15 PM 73.8 °F 49.3 °F 42% 29.83 in 10.0 mi East 17.3 mph 23.0 mph N/A   Clear
5:55 PM 73.4 °F 49.6 °F 43% 29.81 in 10.0 mi East 20.7 mph 29.9 mph N/A   Clear
6:15 PM 71.4 °F 49.6 °F 46% 29.85 in 7.0 mi North 20.7 mph 26.5 mph N/A   Mostly Cloudy
6:35 PM 63.0 °F 50.9 °F 65% 29.83 in 10.0 mi NE 26.5 mph 33.4 mph N/A Thunderstorm Thunderstorm
6:55 PM 62.4 °F 50.9 °F 66% 29.90 in 10.0 mi NNW 23.0 mph 38.0 mph N/A Thunderstorm Overcast
7:15 PM 56.7 °F 53.6 °F 89% 29.93 in 5.0 mi NNW 18.4 mph 28.8 mph 0.05 in Rain , Thunderstorm Heavy Thunderstorms and Rain
7:35 PM 56.5 °F 53.8 °F 91% 29.90 in 10.0 mi North 20.7 mph 28.8 mph 0.07 in Rain Light Rain
7:55 PM 56.3 °F 53.6 °F 91% 29.94 in 10.0 mi NNE 16.1 mph - 0.07 in Thunderstorm Mostly Cloudy
8:15 PM 55.6 °F 53.6 °F 93% 29.91 in 10.0 mi NNE 18.4 mph 24.2 mph N/A Rain Light Rain
8:35 PM 55.4 °F 53.2 °F 92% 29.92 in 10.0 mi ENE 15.0 mph - N/A   Scattered Clouds
8:55 PM 55.4 °F 53.2 °F 92% 29.93 in 10.0 mi NE 10.4 mph - N/A   Overcast
9:15 PM 55.4 °F 53.1 °F 92% 29.92 in 10.0 mi NNE 11.5 mph - N/A Thunderstorm Overcast
9:35 PM 56.1 °F 51.8 °F 85% 29.96 in 10.0 mi NW 10.4 mph 16.1 mph N/A Rain , Thunderstorm Light Thunderstorms and Rain
10:15 PM 55.6 °F 52.7 °F 90% 30.00 in 7.0 mi North 17.3 mph 27.6 mph 0.03 in Rain Rain
10:35 PM 54.1 °F 51.8 °F 92% 29.99 in 5.0 mi North 23.0 mph 28.8 mph 0.06 in Rain Rain
10:55 PM 53.6 °F 51.1 °F 91% 30.01 in 10.0 mi North 24.2 mph 31.1 mph 0.07 in Rain Light Rain
11:15 PM 52.7 °F 50.0 °F 91% 30.05 in 7.0 mi NNW 19.6 mph 29.9 mph 0.05 in Rain Heavy Rain
11:35 PM 51.4 °F 48.7 °F 90% 30.06 in 7.0 mi NNW 18.4 mph 23.0 mph 0.12 in Rain Heavy Rain
11:55 PM 51.1 °F 49.1 °F 93% 30.07 in 7.0 mi NNW 16.1 mph 21.9 mph 0.17 in Rain Heavy Rain